EZY67E EIDW-EGPH

Flight info

Callsign EZY67E
Flight time 0h 40m
Altitude 25000
Route ROTEV8E ROTEV P600 TUNSO
Aircraft A20N/M-SDE2E3FGHIRWXY/LB1

Departure

Time 2026-04-25 16:08
Airport Dublin Airport (EIDW)

Arrival

Time 2026-04-25 16:48
Airport Edinburgh Airport (EGPH)
Time Latitude Longitude Altitude Speed Heading
2026-04-25 15:31 53.42664 -6.24702 221 ft 0 kts 147°
2026-04-25 15:54 53.42673 -6.24711 220 ft 2 kts 151°
2026-04-25 15:55 53.42688 -6.24722 214 ft 2 kts 160°
2026-04-25 15:55 53.42703 -6.24728 221 ft 2 kts 183°
2026-04-25 15:55 53.42719 -6.24718 214 ft 2 kts 227°
2026-04-25 15:55 53.42725 -6.24702 216 ft 1 kts 248°
2026-04-25 15:56 53.42725 -6.24700 216 ft 0 kts 249°
2026-04-25 15:58 53.42724 -6.24705 214 ft 1 kts 249°
2026-04-25 15:59 53.42721 -6.24719 214 ft 2 kts 249°
2026-04-25 15:59 53.42716 -6.24741 221 ft 2 kts 249°
2026-04-25 15:59 53.42708 -6.24765 222 ft 2 kts 234°
2026-04-25 15:59 53.42698 -6.24789 218 ft 3 kts 234°
2026-04-25 16:00 53.42686 -6.24817 214 ft 3 kts 233°
2026-04-25 16:00 53.42681 -6.24827 223 ft 3 kts 233°
2026-04-25 16:00 53.42664 -6.24889 216 ft 4 kts 269°
2026-04-25 16:00 53.42680 -6.24938 215 ft 6 kts 320°
2026-04-25 16:01 53.42724 -6.24985 214 ft 9 kts 328°
2026-04-25 16:01 53.42779 -6.25056 218 ft 11 kts 309°
2026-04-25 16:01 53.42795 -6.25170 214 ft 10 kts 274°
2026-04-25 16:01 53.42779 -6.25277 219 ft 10 kts 228°
2026-04-25 16:02 53.42732 -6.25360 218 ft 10 kts 226°
2026-04-25 16:02 53.42686 -6.25437 217 ft 10 kts 225°
2026-04-25 16:02 53.42625 -6.25541 222 ft 14 kts 225°
2026-04-25 16:02 53.42548 -6.25674 214 ft 17 kts 226°
2026-04-25 16:03 53.42457 -6.25827 220 ft 19 kts 225°
2026-04-25 16:03 53.42362 -6.25989 217 ft 20 kts 226°
2026-04-25 16:03 53.42277 -6.26175 218 ft 20 kts 248°
2026-04-25 16:03 53.42272 -6.26410 217 ft 21 kts 275°
2026-04-25 16:04 53.42285 -6.26649 214 ft 21 kts 275°
2026-04-25 16:04 53.42299 -6.26895 214 ft 21 kts 275°
2026-04-25 16:04 53.42313 -6.27145 220 ft 22 kts 275°
2026-04-25 16:04 53.42326 -6.27400 214 ft 22 kts 275°
2026-04-25 16:05 53.42336 -6.27572 214 ft 22 kts 275°
2026-04-25 16:05 53.42355 -6.27924 220 ft 23 kts 275°
2026-04-25 16:05 53.42385 -6.28464 214 ft 24 kts 275°
2026-04-25 16:06 53.42401 -6.28742 214 ft 24 kts 275°
2026-04-25 16:06 53.42411 -6.28955 221 ft 10 kts 265°
2026-04-25 16:06 53.42380 -6.29053 220 ft 10 kts 217°
2026-04-25 16:06 53.42312 -6.29075 219 ft 11 kts 173°
2026-04-25 16:07 53.42247 -6.29019 212 ft 11 kts 113°
2026-04-25 16:07 53.42241 -6.28975 214 ft 11 kts 97°
2026-04-25 16:07 53.42185 -6.27946 215 ft 111 kts 95°
2026-04-25 16:07 53.42093 -6.26359 419 ft 146 kts 98°
2026-04-25 16:08 53.41989 -6.24720 1124 ft 140 kts 98°
2026-04-25 16:08 53.41886 -6.22949 1608 ft 171 kts 98°
2026-04-25 16:08 53.41765 -6.20735 1988 ft 207 kts 97°
2026-04-25 16:08 53.41633 -6.18237 2656 ft 223 kts 97°
2026-04-25 16:09 53.41490 -6.15560 3395 ft 237 kts 96°
2026-04-25 16:09 53.41339 -6.12768 4293 ft 243 kts 96°
2026-04-25 16:09 53.41183 -6.09923 5264 ft 247 kts 96°
2026-04-25 16:09 53.41026 -6.07074 6171 ft 250 kts 97°
2026-04-25 16:10 53.40977 -6.04144 7055 ft 255 kts 86°
2026-04-25 16:10 53.41505 -6.01294 7858 ft 261 kts 61°
2026-04-25 16:10 53.42750 -5.99072 8620 ft 265 kts 33°
2026-04-25 16:10 53.44478 -5.98016 9153 ft 267 kts
2026-04-25 16:11 53.46342 -5.97969 9304 ft 268 kts 355°
2026-04-25 16:11 53.48204 -5.98194 9213 ft 269 kts 354°
2026-04-25 16:11 53.50087 -5.98450 9453 ft 273 kts 354°
2026-04-25 16:11 53.51977 -5.98716 10311 ft 272 kts 352°
2026-04-25 16:12 53.53877 -5.99220 10887 ft 288 kts 348°
2026-04-25 16:12 53.55953 -5.99890 11221 ft 318 kts 347°
2026-04-25 16:12 53.58221 -6.00640 11627 ft 343 kts 347°
2026-04-25 16:12 53.58986 -6.00892 11840 ft 348 kts 347°
2026-04-25 16:13 53.63059 -6.02219 13291 ft 362 kts 347°
2026-04-25 16:13 53.65527 -6.03019 14213 ft 368 kts 347°
2026-04-25 16:13 53.68057 -6.03839 15088 ft 373 kts 347°
2026-04-25 16:13 53.70623 -6.04670 15984 ft 377 kts 347°
2026-04-25 16:14 53.73241 -6.05280 16874 ft 382 kts 353°
2026-04-25 16:14 53.75921 -6.05495 17754 ft 387 kts 356°
2026-04-25 16:14 53.78637 -6.05614 18593 ft 392 kts 356°
2026-04-25 16:14 53.81378 -6.05720 19317 ft 396 kts 356°
2026-04-25 16:15 53.84152 -6.05829 20049 ft 400 kts 356°
2026-04-25 16:15 53.86954 -6.05944 20756 ft 405 kts 356°
2026-04-25 16:15 53.89789 -6.06063 21478 ft 409 kts 356°
2026-04-25 16:15 53.92652 -6.06184 22209 ft 413 kts 356°
2026-04-25 16:16 53.95543 -6.06307 22858 ft 417 kts 356°
2026-04-25 16:16 53.98452 -6.06432 23152 ft 418 kts 356°
2026-04-25 16:16 54.01373 -6.06349 23225 ft 422 kts
2026-04-25 16:16 54.04231 -6.05279 23662 ft 431 kts 17°
2026-04-25 16:17 54.07077 -6.03414 24280 ft 434 kts 21°
2026-04-25 16:17 54.09809 -6.01314 24836 ft 438 kts 24°
2026-04-25 16:17 54.12552 -5.99042 25133 ft 439 kts 24°
2026-04-25 16:17 54.15289 -5.96710 25194 ft 439 kts 25°
2026-04-25 16:18 54.18020 -5.94378 25195 ft 439 kts 25°
2026-04-25 16:18 54.18948 -5.93589 25198 ft 440 kts 24°
2026-04-25 16:18 54.23514 -5.89749 25198 ft 440 kts 24°
2026-04-25 16:18 54.26270 -5.87457 25197 ft 440 kts 24°
2026-04-25 16:19 54.29031 -5.85171 25196 ft 440 kts 24°
2026-04-25 16:19 54.31788 -5.82892 25194 ft 440 kts 24°
2026-04-25 16:19 54.34548 -5.80610 25193 ft 440 kts 24°
2026-04-25 16:20 54.40029 -5.76067 25195 ft 440 kts 24°
2026-04-25 16:20 54.42782 -5.73779 25192 ft 440 kts 24°
2026-04-25 16:20 54.48289 -5.69188 25190 ft 440 kts 24°
2026-04-25 16:21 54.51043 -5.66888 25188 ft 440 kts 24°
2026-04-25 16:21 54.53793 -5.64587 25188 ft 440 kts 24°
2026-04-25 16:21 54.56543 -5.62282 25203 ft 440 kts 24°
2026-04-25 16:21 54.59199 -5.59654 25203 ft 441 kts 33°
2026-04-25 16:22 54.61646 -5.56446 25204 ft 442 kts 37°
2026-04-25 16:22 54.64019 -5.53082 25209 ft 442 kts 39°
2026-04-25 16:22 54.66351 -5.49614 25203 ft 442 kts 40°
2026-04-25 16:22 54.68659 -5.46097 25203 ft 442 kts 40°
2026-04-25 16:23 54.70956 -5.42565 25200 ft 442 kts 40°
2026-04-25 16:23 54.73252 -5.39030 25203 ft 442 kts 40°
2026-04-25 16:23 54.75551 -5.35497 25203 ft 441 kts 40°
2026-04-25 16:23 54.77850 -5.31971 25203 ft 441 kts 40°
2026-04-25 16:24 54.80142 -5.28461 25203 ft 441 kts 40°
2026-04-25 16:24 54.82450 -5.24929 24870 ft 444 kts 40°
2026-04-25 16:24 54.84771 -5.21373 24052 ft 447 kts 40°
2026-04-25 16:24 54.87130 -5.17838 23180 ft 447 kts 36°
2026-04-25 16:25 54.87954 -5.16821 22926 ft 446 kts 32°
2026-04-25 16:25 54.90617 -5.14139 22188 ft 442 kts 27°
2026-04-25 16:25 54.94258 -5.10852 21169 ft 438 kts 26°
2026-04-25 16:25 54.96970 -5.08472 20424 ft 436 kts 26°
2026-04-25 16:26 54.99678 -5.06110 19685 ft 433 kts 26°
2026-04-25 16:26 55.02369 -5.03769 18856 ft 433 kts 26°
2026-04-25 16:26 55.05061 -5.01426 18003 ft 432 kts 26°
2026-04-25 16:26 55.07731 -4.99092 17416 ft 424 kts 27°
2026-04-25 16:27 55.10150 -4.96316 17034 ft 411 kts 42°
2026-04-25 16:27 55.11927 -4.92512 16801 ft 402 kts 60°
2026-04-25 16:27 55.13170 -4.88146 16604 ft 401 kts 67°
2026-04-25 16:27 55.14284 -4.83679 16407 ft 400 kts 68°
2026-04-25 16:28 55.15375 -4.79215 16206 ft 399 kts 68°
2026-04-25 16:28 55.16467 -4.74757 16004 ft 398 kts 68°
2026-04-25 16:28 55.17555 -4.70325 15810 ft 396 kts 68°
2026-04-25 16:28 55.18632 -4.65948 15607 ft 395 kts 68°
2026-04-25 16:29 55.19717 -4.61531 15403 ft 394 kts 68°
2026-04-25 16:29 55.20799 -4.57127 15209 ft 392 kts 68°
2026-04-25 16:29 55.21875 -4.52742 14997 ft 391 kts 68°
2026-04-25 16:29 55.22945 -4.48370 14813 ft 390 kts 68°
2026-04-25 16:30 55.24013 -4.44004 14615 ft 389 kts 68°
2026-04-25 16:30 55.25075 -4.39650 14409 ft 388 kts 68°
2026-04-25 16:30 55.26132 -4.35309 14223 ft 385 kts 68°
2026-04-25 16:30 55.27178 -4.31008 14033 ft 383 kts 68°
2026-04-25 16:31 55.28221 -4.26706 13826 ft 382 kts 68°
2026-04-25 16:31 55.29256 -4.22432 13630 ft 381 kts 68°
2026-04-25 16:31 55.30289 -4.18155 13434 ft 380 kts 68°
2026-04-25 16:31 55.31316 -4.13898 13247 ft 379 kts 68°
2026-04-25 16:32 55.32342 -4.09640 13056 ft 377 kts 68°
2026-04-25 16:32 55.33362 -4.05391 12862 ft 376 kts 68°
2026-04-25 16:32 55.34362 -4.01217 12684 ft 375 kts 68°
2026-04-25 16:32 55.35387 -3.96936 12489 ft 374 kts 68°
2026-04-25 16:33 55.36381 -3.92779 12307 ft 373 kts 68°
2026-04-25 16:33 55.37383 -3.88574 12116 ft 372 kts 68°
2026-04-25 16:33 55.38383 -3.84373 11932 ft 372 kts 67°
2026-04-25 16:33 55.39380 -3.80176 11748 ft 371 kts 67°
2026-04-25 16:34 55.40372 -3.75986 11562 ft 371 kts 67°
2026-04-25 16:34 55.41362 -3.71800 11375 ft 370 kts 67°
2026-04-25 16:34 55.42349 -3.67618 11194 ft 368 kts 67°
2026-04-25 16:34 55.43332 -3.63445 11007 ft 368 kts 67°
2026-04-25 16:35 55.44310 -3.59285 10822 ft 365 kts 67°
2026-04-25 16:35 55.45260 -3.55237 10671 ft 354 kts 67°
2026-04-25 16:35 55.46163 -3.51379 10529 ft 328 kts 67°
2026-04-25 16:35 55.47013 -3.47742 10357 ft 306 kts 67°
2026-04-25 16:36 55.47843 -3.44438 10241 ft 294 kts 59°
2026-04-25 16:36 55.48204 -3.43393 10150 ft 295 kts 54°
2026-04-25 16:36 55.50915 -3.40085 9430 ft 286 kts
2026-04-25 16:36 55.52867 -3.40039 9084 ft 280 kts 346°
2026-04-25 16:37 55.54640 -3.41365 8746 ft 277 kts 327°
2026-04-25 16:37 55.56220 -3.43302 8405 ft 276 kts 322°
2026-04-25 16:37 55.57745 -3.45325 8068 ft 274 kts 321°
2026-04-25 16:37 55.59261 -3.47339 7763 ft 270 kts 322°
2026-04-25 16:38 55.60738 -3.49292 7593 ft 259 kts 321°
2026-04-25 16:38 55.62173 -3.51179 7242 ft 257 kts 322°
2026-04-25 16:38 55.63601 -3.53055 6934 ft 253 kts 322°
2026-04-25 16:38 55.65012 -3.54910 6573 ft 251 kts 322°
2026-04-25 16:39 55.66373 -3.56693 6419 ft 242 kts 322°
2026-04-25 16:39 55.67695 -3.58425 6222 ft 233 kts 321°
2026-04-25 16:39 55.68992 -3.60125 5815 ft 232 kts 322°
2026-04-25 16:39 55.70290 -3.61827 5358 ft 232 kts 321°
2026-04-25 16:40 55.71589 -3.63535 5055 ft 234 kts 321°
2026-04-25 16:40 55.72901 -3.65261 4720 ft 235 kts 322°
2026-04-25 16:40 55.74222 -3.66995 4414 ft 233 kts 322°
2026-04-25 16:40 55.75500 -3.68673 4294 ft 222 kts 322°
2026-04-25 16:41 55.76714 -3.70270 4051 ft 213 kts 322°
2026-04-25 16:41 55.77500 -3.71306 3900 ft 211 kts 321°
2026-04-25 16:41 55.80375 -3.74355 3971 ft 212 kts 348°
2026-04-25 16:42 55.81838 -3.74089 3965 ft 215 kts 22°
2026-04-25 16:42 55.83001 -3.72444 3969 ft 216 kts 51°
2026-04-25 16:42 55.83844 -3.70218 3968 ft 213 kts 58°
2026-04-25 16:42 55.84576 -3.68027 3985 ft 199 kts 59°
2026-04-25 16:43 55.85262 -3.65904 3840 ft 197 kts 60°
2026-04-25 16:43 55.85962 -3.63823 3527 ft 196 kts 59°
2026-04-25 16:43 55.86670 -3.61761 3203 ft 195 kts 59°
2026-04-25 16:43 55.87368 -3.59706 2914 ft 192 kts 60°
2026-04-25 16:44 55.88053 -3.57692 2645 ft 188 kts 60°
2026-04-25 16:44 55.88720 -3.55734 2408 ft 181 kts 60°
2026-04-25 16:44 55.89359 -3.53854 2158 ft 172 kts 62°
2026-04-25 16:44 55.89952 -3.52114 1943 ft 156 kts 63°
2026-04-25 16:45 55.90489 -3.50532 1744 ft 140 kts 62°
2026-04-25 16:45 55.90966 -3.49131 1548 ft 125 kts 63°
2026-04-25 16:45 55.91393 -3.47874 1383 ft 114 kts 63°
2026-04-25 16:45 55.91792 -3.46690 1229 ft 112 kts 62°
2026-04-25 16:46 55.92202 -3.45481 1065 ft 111 kts 60°
2026-04-25 16:46 55.92599 -3.44314 884 ft 112 kts 61°
2026-04-25 16:46 55.93003 -3.43112 763 ft 112 kts 60°
2026-04-25 16:46 55.93137 -3.42708 707 ft 112 kts 59°
2026-04-25 16:47 55.93802 -3.40792 440 ft 108 kts 59°
2026-04-25 16:47 55.94187 -3.39648 297 ft 107 kts 59°
2026-04-25 16:47 55.94571 -3.38512 154 ft 107 kts 59°
2026-04-25 16:47 55.94929 -3.37459 113 ft 81 kts 59°
2026-04-25 16:48 55.95127 -3.36874 116 ft 34 kts 59°
2026-04-25 16:48 55.95242 -3.36538 113 ft 23 kts 59°
2026-04-25 16:48 55.95230 -3.36390 115 ft 12 kts 146°
2026-04-25 16:48 55.95182 -3.36338 115 ft 0 kts 148°
2026-04-25 16:49 55.95181 -3.36338 115 ft 0 kts 148°
2026-04-25 16:49 55.95166 -3.36321 117 ft 5 kts 148°
2026-04-25 16:50 55.95122 -3.36326 118 ft 9 kts 224°
2026-04-25 16:50 55.95065 -3.36398 116 ft 10 kts 178°
2026-04-25 16:50 55.95017 -3.36400 116 ft 7 kts 196°
2026-04-25 16:50 55.94970 -3.36388 115 ft 7 kts 153°
2026-04-25 16:51 55.94937 -3.36353 116 ft 0 kts 148°
2026-04-25 16:51 55.94941 -3.36356 117 ft 0 kts 148°